Time,TemperatureF,DewpointF,PressureIn,WindDirection,WindDirectionDegrees,WindSpeedMPH,WindSpeedGustMPH,Humidity,HourlyPrecipIn,Conditions,Clouds,dailyrainin,SolarRadiationWatts/m^2,SoftwareType,DateUTC
2013-10-13 00:05:00,64.0,62.0,30.08,ENE,73,0.0,2.0,94,0.00,,,0.01,0,weatherlink.com 1.10,2013-10-13 04:05:00,
2013-10-13 00:20:00,63.9,62.0,30.09,ENE,75,0.0,4.0,94,0.00,,,0.01,0,weatherlink.com 1.10,2013-10-13 04:20:00,
2013-10-13 00:36:00,63.7,62.0,30.09,NE,36,0.0,2.0,95,0.00,,,0.01,0,weatherlink.com 1.10,2013-10-13 04:36:00,
2013-10-13 00:51:00,63.4,62.0,30.09,NE,53,0.0,0.0,95,0.00,,,0.01,0,weatherlink.com 1.10,2013-10-13 04:51:00,
2013-10-13 01:06:00,63.3,62.0,30.09,NE,53,0.0,0.0,96,0.00,,,0.00,0,weatherlink.com 1.10,2013-10-13 05:06:00,
2013-10-13 01:21:00,63.3,62.0,30.09,NE,53,0.0,0.0,96,0.00,,,0.00,0,weatherlink.com 1.10,2013-10-13 05:21:00,
2013-10-13 01:36:00,63.2,62.0,30.09,NE,53,0.0,0.0,96,0.00,,,0.00,0,weatherlink.com 1.10,2013-10-13 05:36:00,
2013-10-13 01:51:00,63.1,62.0,30.09,SSE,157,0.0,5.0,96,0.00,,,0.00,0,weatherlink.com 1.10,2013-10-13 05:51:00,
2013-10-13 02:06:00,63.0,62.0,30.09,ENE,61,0.0,1.0,96,0.00,,,0.00,0,weatherlink.com 1.10,2013-10-13 06:06:00,
2013-10-13 02:21:00,62.9,62.0,30.09,NW,319,1.0,2.0,96,0.00,,,0.00,0,weatherlink.com 1.10,2013-10-13 06:21:00,
2013-10-13 02:36:00,62.8,62.0,30.09,NE,34,0.0,1.0,96,0.00,,,0.00,0,weatherlink.com 1.10,2013-10-13 06:36:00,
2013-10-13 02:51:00,62.8,62.0,30.09,NW,309,0.0,4.0,97,0.00,,,0.00,0,weatherlink.com 1.10,2013-10-13 06:51:00,
2013-10-13 03:06:00,62.8,62.0,30.09,East,90,0.0,1.0,97,0.00,,,0.00,0,weatherlink.com 1.10,2013-10-13 07:06:00,
2013-10-13 03:21:00,62.8,62.0,30.09,South,182,0.0,2.0,97,0.00,,,0.00,0,weatherlink.com 1.10,2013-10-13 07:21:00,
2013-10-13 03:36:00,62.8,62.0,30.09,ESE,108,0.0,0.0,97,0.00,,,0.00,0,weatherlink.com 1.10,2013-10-13 07:36:00,
2013-10-13 03:51:00,62.8,62.0,30.09,WNW,286,1.0,4.0,97,0.00,,,0.00,0,weatherlink.com 1.10,2013-10-13 07:51:00,
2013-10-13 04:06:00,62.7,62.0,30.10,ENE,69,0.0,2.0,97,0.01,,,0.01,0,weatherlink.com 1.10,2013-10-13 08:06:00,
2013-10-13 04:21:00,62.7,62.0,30.10,ESE,115,0.0,2.0,97,0.01,,,0.01,0,weatherlink.com 1.10,2013-10-13 08:21:00,
2013-10-13 04:36:00,62.6,62.0,30.10,ENE,58,0.0,2.0,97,0.01,,,0.01,0,weatherlink.com 1.10,2013-10-13 08:36:00,
2013-10-13 04:51:00,62.6,62.0,30.11,ESE,108,1.0,4.0,97,0.01,,,0.01,0,weatherlink.com 1.10,2013-10-13 08:51:00,
2013-10-13 05:06:00,62.3,62.0,30.11,SE,129,0.0,3.0,97,0.00,,,0.01,0,weatherlink.com 1.10,2013-10-13 09:06:00,
2013-10-13 05:21:00,62.3,62.0,30.11,ENE,67,0.0,1.0,97,0.00,,,0.01,0,weatherlink.com 1.10,2013-10-13 09:21:00,
2013-10-13 05:36:00,62.2,61.0,30.11,East,82,0.0,5.0,97,0.00,,,0.01,0,weatherlink.com 1.10,2013-10-13 09:36:00,
2013-10-13 05:51:00,62.3,62.0,30.11,East,82,0.0,1.0,97,0.00,,,0.01,0,weatherlink.com 1.10,2013-10-13 09:51:00,
2013-10-13 06:06:00,62.2,61.0,30.12,ENE,76,0.0,3.0,97,0.00,,,0.01,0,weatherlink.com 1.10,2013-10-13 10:06:00,
2013-10-13 06:21:00,62.1,61.0,30.12,North,355,1.0,4.0,97,0.00,,,0.01,0,weatherlink.com 1.10,2013-10-13 10:21:00,
2013-10-13 06:36:00,61.9,61.0,30.12,East,80,0.0,3.0,97,0.00,,,0.01,0,weatherlink.com 1.10,2013-10-13 10:36:00,
2013-10-13 06:51:00,61.8,61.0,30.12,WSW,244,0.0,5.0,97,0.00,,,0.01,0,weatherlink.com 1.10,2013-10-13 10:51:00,
2013-10-13 07:06:00,61.8,61.0,30.13,East,80,0.0,1.0,97,0.00,,,0.01,0,weatherlink.com 1.10,2013-10-13 11:06:00,
2013-10-13 07:21:00,61.8,61.0,30.13,ENE,58,5.0,9.0,97,0.00,,,0.01,0,weatherlink.com 1.10,2013-10-13 11:21:00,
2013-10-13 07:36:00,61.7,61.0,30.14,ENE,67,0.0,5.0,97,0.00,,,0.01,0,weatherlink.com 1.10,2013-10-13 11:36:00,
2013-10-13 07:51:00,61.7,61.0,30.14,East,101,0.0,4.0,96,0.00,,,0.01,5,weatherlink.com 1.10,2013-10-13 11:51:00,
2013-10-13 08:06:00,61.8,61.0,30.15,East,96,0.0,5.0,96,0.00,,,0.01,14,weatherlink.com 1.10,2013-10-13 12:06:00,
2013-10-13 08:21:00,61.9,61.0,30.16,ENE,72,0.0,2.0,96,0.00,,,0.01,23,weatherlink.com 1.10,2013-10-13 12:21:00,
2013-10-13 08:36:00,61.9,61.0,30.16,NE,49,1.0,4.0,96,0.00,,,0.01,33,weatherlink.com 1.10,2013-10-13 12:36:00,
2013-10-13 08:51:00,62.1,61.0,30.16,ENE,72,0.0,3.0,96,0.00,,,0.01,51,weatherlink.com 1.10,2013-10-13 12:51:00,
2013-10-13 09:06:00,62.4,61.0,30.17,SE,127,0.0,2.0,96,0.00,,,0.01,58,weatherlink.com 1.10,2013-10-13 13:06:00,
2013-10-13 09:21:00,62.5,61.0,30.17,SE,129,0.0,2.0,95,0.00,,,0.01,91,weatherlink.com 1.10,2013-10-13 13:21:00,
2013-10-13 09:36:00,62.8,61.0,30.18,ENE,76,0.0,3.0,94,0.00,,,0.01,79,weatherlink.com 1.10,2013-10-13 13:36:00,
2013-10-13 09:51:00,63.1,62.0,30.18,East,86,0.0,4.0,95,0.00,,,0.01,98,weatherlink.com 1.10,2013-10-13 13:51:00,
2013-10-13 10:06:00,63.4,62.0,30.18,ENE,71,0.0,2.0,94,0.00,,,0.01,139,weatherlink.com 1.10,2013-10-13 14:06:00,
2013-10-13 10:21:00,63.9,62.0,30.18,East,88,0.0,6.0,93,0.00,,,0.01,156,weatherlink.com 1.10,2013-10-13 14:21:00,
2013-10-13 10:36:00,64.3,62.0,30.18,ENE,76,1.0,3.0,92,0.00,,,0.01,178,weatherlink.com 1.10,2013-10-13 14:36:00,
2013-10-13 10:52:00,64.7,62.0,30.18,ESE,109,1.0,4.0,92,0.00,,,0.01,193,weatherlink.com 1.10,2013-10-13 14:52:00,
2013-10-13 11:07:00,65.0,62.0,30.19,SSE,167,1.0,3.0,91,0.00,,,0.01,188,weatherlink.com 1.10,2013-10-13 15:07:00,
2013-10-13 11:22:00,65.6,63.0,30.19,East,87,1.0,6.0,91,0.00,,,0.01,195,weatherlink.com 1.10,2013-10-13 15:22:00,
2013-10-13 11:37:00,65.9,63.0,30.19,SSE,148,1.0,5.0,90,0.00,,,0.01,190,weatherlink.com 1.10,2013-10-13 15:37:00,
2013-10-13 11:52:00,66.0,63.0,30.18,SW,232,0.0,2.0,90,0.00,,,0.01,195,weatherlink.com 1.10,2013-10-13 15:52:00,
2013-10-13 12:07:00,66.2,63.0,30.18,South,169,2.0,5.0,89,0.00,,,0.01,206,weatherlink.com 1.10,2013-10-13 16:07:00,
2013-10-13 12:23:00,66.3,63.0,30.18,NNE,22,1.0,4.0,89,0.00,,,0.01,148,weatherlink.com 1.10,2013-10-13 16:23:00,
2013-10-13 12:37:00,66.4,64.0,30.18,North,11,3.0,3.0,90,0.00,,,0.01,107,weatherlink.com 1.10,2013-10-13 16:37:00,
2013-10-13 12:52:00,65.9,63.0,30.18,ENE,65,1.0,5.0,89,0.00,,,0.01,102,weatherlink.com 1.10,2013-10-13 16:52:00,
2013-10-13 13:07:00,65.7,63.0,30.18,NE,54,3.0,4.0,91,0.00,,,0.01,146,weatherlink.com 1.10,2013-10-13 17:07:00,
2013-10-13 13:22:00,66.1,64.0,30.17,East,84,4.0,7.0,91,0.00,,,0.01,214,weatherlink.com 1.10,2013-10-13 17:22:00,
2013-10-13 13:37:00,66.3,63.0,30.17,SSE,150,0.0,6.0,90,0.00,,,0.01,139,weatherlink.com 1.10,2013-10-13 17:37:00,
2013-10-13 13:52:00,66.4,63.0,30.16,NE,45,1.0,3.0,89,0.00,,,0.01,165,weatherlink.com 1.10,2013-10-13 17:52:00,
2013-10-13 14:07:00,66.6,64.0,30.16,South,189,0.0,3.0,90,0.00,,,0.01,151,weatherlink.com 1.10,2013-10-13 18:07:00,
2013-10-13 14:22:00,66.8,64.0,30.16,East,81,0.0,8.0,90,0.00,,,0.01,98,weatherlink.com 1.10,2013-10-13 18:22:00,
2013-10-13 14:37:00,66.9,64.0,30.15,ENE,65,0.0,5.0,90,0.00,,,0.01,158,weatherlink.com 1.10,2013-10-13 18:37:00,
2013-10-13 14:52:00,67.1,64.0,30.15,NE,41,1.0,5.0,90,0.00,,,0.01,109,weatherlink.com 1.10,2013-10-13 18:52:00,
2013-10-13 15:07:00,67.0,64.0,30.16,ENE,58,0.0,4.0,90,0.00,,,0.01,90,weatherlink.com 1.10,2013-10-13 19:07:00,
2013-10-13 15:22:00,67.1,64.0,30.16,ESE,123,1.0,6.0,90,0.00,,,0.01,67,weatherlink.com 1.10,2013-10-13 19:22:00,
2013-10-13 15:37:00,66.9,64.0,30.15,ENE,69,8.0,8.0,90,0.00,,,0.01,76,weatherlink.com 1.10,2013-10-13 19:37:00,
2013-10-13 15:52:00,66.7,64.0,30.15,South,180,0.0,10.0,91,0.00,,,0.01,58,weatherlink.com 1.10,2013-10-13 19:52:00,
2013-10-13 16:07:00,66.6,64.0,30.16,ENE,58,1.0,6.0,91,0.00,,,0.01,72,weatherlink.com 1.10,2013-10-13 20:07:00,
2013-10-13 16:22:00,66.5,64.0,30.16,SE,136,0.0,5.0,91,0.00,,,0.01,69,weatherlink.com 1.10,2013-10-13 20:22:00,
2013-10-13 16:37:00,66.5,64.0,30.16,NE,46,0.0,5.0,91,0.00,,,0.01,56,weatherlink.com 1.10,2013-10-13 20:37:00,
2013-10-13 16:52:00,66.3,64.0,30.16,SE,132,0.0,8.0,92,0.00,,,0.01,46,weatherlink.com 1.10,2013-10-13 20:52:00,
2013-10-13 17:07:00,66.1,64.0,30.16,NE,48,0.0,8.0,92,0.00,,,0.01,28,weatherlink.com 1.10,2013-10-13 21:07:00,
2013-10-13 17:22:00,65.9,64.0,30.15,ENE,67,0.0,2.0,93,0.00,,,0.01,51,weatherlink.com 1.10,2013-10-13 21:22:00,
2013-10-13 17:37:00,65.9,64.0,30.15,NW,325,0.0,3.0,93,0.00,,,0.01,35,weatherlink.com 1.10,2013-10-13 21:37:00,
2013-10-13 17:52:00,66.0,64.0,30.16,WSW,238,0.0,5.0,93,0.00,,,0.01,21,weatherlink.com 1.10,2013-10-13 21:52:00,
2013-10-13 18:07:00,65.8,64.0,30.16,SSE,163,0.0,3.0,93,0.00,,,0.01,14,weatherlink.com 1.10,2013-10-13 22:07:00,
2013-10-13 18:22:00,65.7,64.0,30.17,SSW,200,1.0,3.0,93,0.00,,,0.01,9,weatherlink.com 1.10,2013-10-13 22:22:00,
2013-10-13 18:37:00,65.6,64.0,30.17,NE,50,0.0,6.0,93,0.00,,,0.01,5,weatherlink.com 1.10,2013-10-13 22:37:00,
2013-10-13 18:52:00,65.5,64.0,30.17,NNW,327,0.0,5.0,93,0.00,,,0.01,0,weatherlink.com 1.10,2013-10-13 22:52:00,
2013-10-13 19:07:00,65.4,63.0,30.17,SE,130,0.0,4.0,93,0.00,,,0.01,0,weatherlink.com 1.10,2013-10-13 23:07:00,
2013-10-13 19:22:00,65.4,63.0,30.18,NNW,345,0.0,6.0,92,0.00,,,0.01,0,weatherlink.com 1.10,2013-10-13 23:22:00,
2013-10-13 19:37:00,65.3,63.0,30.18,North,355,0.0,4.0,92,0.00,,,0.01,0,weatherlink.com 1.10,2013-10-13 23:37:00,
2013-10-13 19:52:00,65.2,63.0,30.18,SSW,202,3.0,5.0,93,0.00,,,0.01,0,weatherlink.com 1.10,2013-10-13 23:52:00,
2013-10-13 20:07:00,65.2,63.0,30.19,ESE,106,1.0,2.0,92,0.00,,,0.01,0,weatherlink.com 1.10,2013-10-14 00:07:00,
2013-10-13 20:22:00,65.0,63.0,30.19,SSW,192,2.0,4.0,92,0.00,,,0.01,0,weatherlink.com 1.10,2013-10-14 00:22:00,
2013-10-13 20:37:00,64.9,63.0,30.19,ENE,63,2.0,4.0,92,0.00,,,0.01,0,weatherlink.com 1.10,2013-10-14 00:37:00,
2013-10-13 20:52:00,64.6,62.0,30.19,North,355,3.0,6.0,92,0.00,,,0.01,0,weatherlink.com 1.10,2013-10-14 00:52:00,
2013-10-13 21:07:00,64.1,62.0,30.19,East,82,0.0,4.0,94,0.00,,,0.01,0,weatherlink.com 1.10,2013-10-14 01:07:00,
2013-10-13 21:22:00,63.6,62.0,30.19,South,183,0.0,7.0,95,0.02,,,0.03,0,weatherlink.com 1.10,2013-10-14 01:22:00,
2013-10-13 21:37:00,63.1,62.0,30.20,East,96,0.0,5.0,95,0.03,,,0.04,0,weatherlink.com 1.10,2013-10-14 01:37:00,
2013-10-13 21:52:00,62.8,62.0,30.20,South,180,0.0,1.0,96,0.03,,,0.04,0,weatherlink.com 1.10,2013-10-14 01:52:00,
2013-10-13 22:07:00,62.6,62.0,30.20,NE,51,1.0,4.0,96,0.04,,,0.05,0,weatherlink.com 1.10,2013-10-14 02:07:00,
2013-10-13 22:22:00,62.5,61.0,30.20,NE,48,0.0,2.0,96,0.02,,,0.05,0,weatherlink.com 1.10,2013-10-14 02:22:00,
2013-10-13 22:37:00,62.3,61.0,30.20,ESE,104,0.0,4.0,96,0.01,,,0.05,0,weatherlink.com 1.10,2013-10-14 02:37:00,
2013-10-13 22:52:00,62.2,61.0,30.20,ENE,76,0.0,5.0,96,0.01,,,0.05,0,weatherlink.com 1.10,2013-10-14 02:52:00,
2013-10-13 23:07:00,62.2,61.0,30.20,WSW,247,0.0,4.0,96,0.00,,,0.05,0,weatherlink.com 1.10,2013-10-14 03:07:00,
2013-10-13 23:22:00,62.1,61.0,30.20,North,355,0.0,4.0,97,0.00,,,0.05,0,weatherlink.com 1.10,2013-10-14 03:22:00,
2013-10-13 23:37:00,62.1,61.0,30.20,WSW,244,0.0,4.0,97,0.00,,,0.05,0,weatherlink.com 1.10,2013-10-14 03:37:00,
2013-10-13 23:52:00,62.0,61.0,30.20,NNE,24,0.0,6.0,97,0.00,,,0.05,0,weatherlink.com 1.10,2013-10-14 03:52:00,